Date,TemperatureHighF,TemperatureAvgF,TemperatureLowF,DewpointHighF,DewpointAvgF,DewpointLowF,HumidityHigh,HumidityAvg,HumidityLow,PressureMaxIn,PressureMinIn,WindSpeedMaxMPH,WindSpeedAvgMPH,GustSpeedMaxMPH,PrecipitationSumIn
2013-2-1,30.0,26.2,24.0,29.0,24.9,23.0,98,94,90,0.00,40.00,3,2,8,0.02
2013-2-2,33.0,26.6,20.0,29.0,24.9,18.0,95,92,84,0.00,40.00,2,2,5,0.02
2013-2-3,33.0,28.0,24.0,31.0,26.9,23.0,98,95,94,0.00,40.00,2,1,5,0.01
2013-2-4,38.0,31.7,26.0,33.0,28.2,25.0,97,87,64,0.00,40.00,5,2,12,0.03
2013-2-5,31.0,22.8,12.0,25.0,19.8,9.0,93,89,76,0.00,40.00,3,0,5,0.01
2013-2-6,30.0,23.9,15.0,27.0,21.8,12.0,94,92,88,0.00,40.00,2,0,5,0.00
2013-2-7,26.0,24.1,22.0,24.0,22.1,21.0,95,92,86,0.00,40.00,3,1,8,0.00
2013-2-8,33.0,27.7,24.0,30.0,26.2,22.0,97,94,89,0.00,40.00,3,1,7,0.01
2013-2-9,35.0,29.4,26.0,32.0,26.6,23.0,95,89,61,0.00,40.00,6,3,17,0.06
2013-2-10,40.0,34.1,29.0,33.0,30.5,27.0,96,87,69,0.00,40.00,7,3,22,0.33
2013-2-11,31.0,24.0,6.0,30.0,20.0,2.0,97,85,65,0.00,40.00,3,1,9,0.04
2013-2-12,26.0,20.2,9.0,22.0,17.2,5.0,92,88,80,0.00,40.00,1,0,6,0.00
2013-2-13,31.0,24.7,20.0,25.0,22.0,18.0,93,90,78,0.00,40.00,4,1,7,0.01
2013-2-14,34.0,27.1,23.0,29.0,23.7,21.0,96,87,67,0.00,40.00,6,2,16,0.02
2013-2-15,32.0,27.6,23.0,29.0,25.5,20.0,96,92,84,0.00,40.00,3,1,9,0.02
2013-2-16,26.0,19.0,3.0,20.0,14.1,-2.0,93,81,62,0.00,40.00,4,2,12,0.01
2013-2-17,25.0,20.8,17.0,22.0,17.4,11.0,92,87,81,0.00,40.00,4,3,14,0.00
2013-2-18,20.0,13.3,-3.0,11.0,5.5,-8.0,85,71,53,0.00,40.00,4,2,13,0.00
2013-2-19,15.0,9.9,-3.0,11.0,2.9,-8.0,84,73,63,0.00,40.00,4,3,10,0.00
2013-2-20,27.0,18.6,13.0,18.0,13.2,10.0,87,79,65,0.00,40.00,4,2,12,0.00
2013-2-21,30.0,23.1,14.0,22.0,18.5,11.0,91,83,63,0.00,40.00,4,1,8,0.06
2013-2-22,29.0,23.0,7.0,22.0,17.8,3.0,94,81,60,0.00,40.00,5,2,11,0.01
2013-2-23,26.0,18.7,7.0,20.0,14.0,3.0,91,82,66,0.00,40.00,5,2,10,0.00
2013-2-24,30.0,23.7,16.0,25.0,20.5,13.0,93,88,76,0.00,40.00,3,2,7,0.00
2013-2-25,31.0,23.4,8.0,22.0,18.3,4.0,90,81,66,0.00,40.00,3,2,7,0.05
2013-2-26,39.0,26.8,18.0,24.0,19.1,14.0,91,75,45,0.00,40.00,3,1,7,0.23
2013-2-27,35.0,26.3,9.0,22.0,17.1,5.0,87,70,44,0.00,40.00,4,2,9,0.10
2013-2-28,37.0,26.9,20.0,25.0,20.3,17.0,90,78,52,0.00,40.00,3,1,9,0.21